Location: Oshawa
(43.9000°N, 78.8670°W)
Time: 01:07:15
(UTC-04:00)

Explorer 11/Cluster Stage 4 - Visible Passes

Search period start: 28 August 2014 00:00
Search period end: 07 September 2014 00:00
Orbit: 468 x 1284 km, 28.8° (Epoch: 25 August)

Date Brightness Start Highest point End Pass type
(mag) Time Alt. Az. Time Alt. Az. Time Alt. Az.
30 Aug 9.1 21:44:48 10° S 21:47:11 14° S 21:47:11 14° S visible
31 Aug 8.9 21:37:02 10° SSW 21:41:25 17° SSE 21:41:25 17° SSE visible
01 Sep 8.7 21:29:31 10° SSW 21:34:50 19° SSE 21:35:32 19° SSE visible
01 Sep 9.4 23:17:13 10° SW 23:17:57 12° SW 23:17:57 12° SW visible
02 Sep 8.7 21:22:08 10° SSW 21:27:55 21° SSE 21:29:30 20° SSE visible
02 Sep 9.2 23:10:08 10° SW 23:11:56 16° SW 23:11:56 16° SW visible
03 Sep 8.6 21:14:53 10° SW 21:20:59 23° SSE 21:23:22 20° SE visible
03 Sep 9.1 23:03:07 10° SW 23:05:47 18° SW 23:05:47 18° SW visible
04 Sep 8.6 21:07:43 10° SW 21:14:03 24° S 21:17:08 20° SE visible
04 Sep 9.0 22:56:09 10° WSW 22:59:33 21° SW 22:59:33 21° SW visible
05 Sep 8.6 21:00:38 10° SW 21:07:07 26° S 21:10:49 19° SE visible
05 Sep 8.9 22:49:14 10° WSW 22:53:14 22° SSW 22:53:14 22° SSW visible
06 Sep 8.6 20:53:38 10° SW 21:00:11 27° S 21:04:27 18° SE visible
06 Sep 8.9 22:42:22 10° WSW 22:46:50 23° SSW 22:46:50 23° SSW visible
